Regional Weather Roundup
Issued by NWS Northern Indiana

Home | Current Version | Previous Version | Graphics & Text | Print | Product List | Glossary On
Versions: 1 2 3 4 5 6 7 8 9 10 11 12 13 14 15 16 17 18 19 20 21 22 23 24 25 26 27 28 29 30 31 32 33 34 35 36 37 38 39 40 41 42 43 44 45 46 47 48 49 50
000
ASUS43 KIWX 312210
RWRIWX

KIWX WEATHER ROUNDUP
NATIONAL WEATHER SERVICE NORTHERN INDIANA
600 PM EDT SUN AUG 31 2014

NOTE: "FAIR" INDICATES FEW OR NO CLOUDS BELOW 12,000 FEET WITH NO
SIGNIFICANT WEATHER AND/OR OBSTRUCTIONS TO VISIBILITY.

* THESE STATIONS ARE NOT UNDER NWS QUALITY CONTROL. THEY ALSO MAY NOT
  REPORT WEATHER SUCH AS PRECIPITATION OR FOG.

INZ001>027-312300-
NORTHERN INDIANA

CITY           SKY/WX    TMP DP  RH WIND       PRES   REMARKS
GARY*          MOSUNNY   86  64  48 S12       29.90F
VALPARAISO     SUNNY     83  66  56 SW9       29.93F
MICHIGAN CITY* MOSUNNY   81  64  57 SW7       29.92S
LAPORTE*       SUNNY     82  67  60 SW7       29.93F
KNOX*          MOSUNNY   83  66  57 W7        29.92S
SOUTH BEND     MOSUNNY   83  69  62 SW7       29.93S
GOSHEN         MOSUNNY   84  68  58 SW9       29.93S
MONTICELLO*    MOSUNNY   82  72  69 SW7       29.93S
LOGANSPORT*    PTSUNNY   81  70  69 W8        29.94F
ROCHESTER*     SUNNY     84  70  61 W6        29.94S
WARSAW*        MOSUNNY   81  70  69 SW9       29.94S
ANGOLA*        SUNNY     82  77  83 SW8       29.95S
FORT WAYNE     PTSUNNY   80  70  71 SW5       29.95F
HUNTINGTON*    CLOUDY    79  70  74 SW6       29.95S
PERU/GRISSOM   SUNNY     82  75  79 SW9       29.94F
MARION*        PTSUNNY   81  69  66 SW10      29.96S HAZE

$$
INZ028>050-312300-
CENTRAL INDIANA

CITY           SKY/WX    TMP DP  RH WIND       PRES   REMARKS
LAFAYETTE      MOSUNNY   82  71  69 SW6       29.93S
KOKOMO*        PTSUNNY   82  70  65 SW10      29.95S
MUNCIE*        SUNNY     81  69  67 SW13      29.97S
INDIANAPOLIS   MOSUNNY   82  68  62 SW13      29.95F

$$
MIZ043>046-050>051-056>058-064>065-071>073-077>080-312300-
SOUTHWEST LOWER MICHIGAN

CITY           SKY/WX    TMP DP  RH WIND       PRES   REMARKS
BATTLE CREEK   PTSUNNY   79  67  66 NW6       29.94F
BENTON HARBOR  SUNNY     82  66  58 W9        29.91F
COLDWATER*     CLOUDY    81  69  67 SW6       29.95R
HILLSDALE*     MOSUNNY   84  67  55 W6        29.95S
HOLLAND        SUNNY     80  68  66 SW6       29.93F
GRAND RAPIDS   MOSUNNY   82  67  60 W9        29.93S
KALAMAZOO      MOSUNNY   81  66  60 VRB5      29.93F
STURGIS*       MOSUNNY   75  70  83 CALM      29.94F
THREE RIVERS*  CLOUDY    75  70  84 S5        29.94S

$$
OHZ001>008-015>018-024>025-312300-
NORTHWEST OHIO

CITY           SKY/WX    TMP DP  RH WIND       PRES   REMARKS
WAUSEON*       FAIR      84  68  58 SW9       29.94S
DEFIANCE       MOSUNNY   84  67  56 SW5       29.94S
FINDLAY        MOSUNNY   82  70  66 SW8       29.96R
TOLEDO EXPRESS SUNNY     83  68  60 SW9       29.94R
TOLEDO METCALF PTSUNNY   85  66  53 SW10      29.94S
LIMA           PTSUNNY   79  70  74 SW7       29.97F

$$
&&



USA.gov is the U.S. government's official web portal to all federal, state and local government web resources and services.